K3TOW Weather Reports


Display with metric or nautical units.
time (UTC)temp
F
wind
direction
speed
MPH
gust
MPH
rain 1hr
in
rain 24hr
in
rain mn
in
humidity
%
barometer
mb
20260906003003 64 0 0.0 0.0 0.00 0.00 0.00 93 1011.0
20260906002212 65 0 0.0 0.0 0.00 0.00 0.00 92 1011.0
20260906001003 65 0 0.0 0.0 0.00 0.00 0.00 92 1010.9
20260906000003 66 0 0.0 0.0 0.00 0.00 0.00 91 1010.8
20260905235212 66 0 0.0 0.0 0.00 0.00 0.00 91 1010.7
20260905234212 67 0 0.0 0.0 0.00 0.00 0.00 90 1010.7
20260905233214 68 0 0.0 0.0 0.00 0.00 0.00 89 1010.6
20260905232003 69 0 0.0 0.0 0.00 0.00 0.00 87 1010.5
20260905231003 70 0 0.0 0.0 0.00 0.00 0.00 86 1010.5
20260905230003 71 213 1.0 2.0 0.00 0.00 0.00 83 1010.4
20260905225003 72 213 0.0 2.0 0.00 0.00 0.00 83 1010.5
20260905224003 73 213 1.0 3.0 0.00 0.00 0.00 79 1010.3
20260905223003 73 248 1.0 5.0 0.00 0.00 0.00 74 1010.4
20260905222003 74 249 1.0 4.0 0.00 0.00 0.00 73 1010.3
20260905221003 74 57 0.0 1.0 0.00 0.00 0.00 72 1010.2
20260905220003 74 0 0.0 0.0 0.00 0.00 0.00 73 1010.1
20260905215003 75 270 1.0 3.0 0.00 0.00 0.00 70 1010.1
20260905214003 75 276 1.0 4.0 0.00 0.00 0.00 70 1010.0
20260905213003 76 278 2.0 6.0 0.00 0.00 0.00 70 1010.1
20260905212003 76 271 2.0 7.0 0.00 0.00 0.00 70 1010.0
20260905211213 76 260 3.0 6.0 0.00 0.00 0.00 69 1009.8
20260905210003 75 273 1.0 6.0 0.00 0.00 0.00 69 1009.9
20260905205003 75 268 2.0 7.0 0.00 0.00 0.00 68 1009.8
20260905204003 75 270 2.0 6.0 0.00 0.00 0.00 68 1009.8
20260905203003 76 265 2.0 8.0 0.00 0.00 0.00 68 1009.8
20260905202003 75 272 1.0 6.0 0.00 0.00 0.00 67 1009.8
20260905201003 75 271 1.0 3.0 0.00 0.00 0.00 70 1009.9
20260905200003 75 253 1.0 3.0 0.00 0.00 0.00 70 1009.8
20260905195213 75 231 0.0 5.0 0.00 0.00 0.00 72 1009.9
20260905194003 75 223 0.0 4.0 0.00 0.00 0.00 70 1009.7
20260905193003 75 253 0.0 3.0 0.00 0.00 0.00 69 1009.6
20260905192213 75 257 1.0 4.0 0.00 0.00 0.00 70 1009.8
20260905191003 75 292 2.0 4.0 0.00 0.00 0.00 69 1010.0
20260905190003 75 254 0.0 2.0 0.00 0.00 0.00 69 1010.0
20260905185003 75 253 1.0 3.0 0.00 0.00 0.00 69 1010.0
20260905184003 75 229 1.0 3.0 0.00 0.00 0.00 68 1010.0
20260905183003 75 277 0.0 3.0 0.00 0.00 0.00 70 1010.0
20260905182003 75 323 0.0 3.0 0.00 0.00 0.00 68 1010.1
20260905181003 74 247 1.0 4.0 0.00 0.00 0.00 70 1010.3
20260905180003 75 275 1.0 4.0 0.00 0.00 0.00 67 1010.4
20260905175003 75 234 1.0 3.0 0.00 0.00 0.00 68 1010.4
20260905174214 75 240 1.0 3.0 0.00 0.00 0.00 69 1010.4
20260905173003 75 338 1.0 3.0 0.00 0.00 0.00 69 1010.4
20260905172003 74 269 1.0 6.0 0.00 0.00 0.00 70 1010.4
20260905171003 74 237 1.0 3.0 0.00 0.00 0.00 73 1010.6
20260905170214 74 306 0.0 2.0 0.00 0.00 0.00 73 1010.7
20260905165003 74 316 0.0 4.0 0.00 0.00 0.00 71 1010.7
20260905164003 73 299 0.0 3.0 0.00 0.00 0.00 76 1010.8
20260905163003 73 347 1.0 3.0 0.00 0.00 0.00 75 1011.0
20260905162003 72 280 1.0 3.0 0.00 0.00 0.00 73 1011.2
20260905161003 72 269 1.0 6.0 0.00 0.00 0.00 74 1011.4
20260905160003 72 258 2.0 6.0 0.00 0.00 0.00 76 1011.4
20260905155003 71 236 2.0 5.0 0.00 0.00 0.00 77 1011.4
20260905154003 70 265 2.0 7.0 0.00 0.00 0.00 76 1011.4
20260905153003 70 263 2.0 9.0 0.00 0.00 0.00 76 1011.3
20260905152003 70 260 2.0 9.0 0.00 0.00 0.00 77 1011.3
20260905151003 71 271 2.0 8.0 0.00 0.00 0.00 76 1011.1
20260905150004 71 275 2.0 7.0 0.00 0.00 0.00 77 1011.1
20260905145003 71 271 3.0 11.0 0.00 0.00 0.00 76 1011.1
20260905144003 71 274 3.0 10.0 0.00 0.00 0.00 78 1011.0
20260905143003 71 295 2.0 5.0 0.00 0.00 0.00 77 1011.0
20260905142003 71 271 3.0 9.0 0.00 0.00 0.00 79 1011.0
20260905141003 70 279 2.0 7.0 0.00 0.00 0.00 81 1011.0
20260905140004 70 272 2.0 11.0 0.00 0.00 0.00 81 1011.1
20260905135003 69 251 1.0 2.0 0.00 0.00 0.00 83 1011.1
20260905134003 69 276 1.0 4.0 0.00 0.00 0.00 84 1011.0
20260905133003 68 262 2.0 7.0 0.00 0.00 0.00 85 1011.0
20260905132212 68 269 2.0 6.0 0.00 0.00 0.00 87 1011.1
20260905131003 67 254 1.0 4.0 0.00 0.00 0.00 89 1011.0
20260905130004 66 250 2.0 10.0 0.00 0.00 0.00 90 1010.9
20260905125003 65 235 0.0 4.0 0.00 0.00 0.00 94 1010.9
20260905124214 64 238 0.0 4.0 0.00 0.00 0.00 95 1011.0
20260905123003 64 0 0.0 0.0 0.00 0.00 0.00 96 1011.0
20260905122003 64 0 0.0 0.0 0.00 0.00 0.00 96 1010.9
20260905121003 63 0 0.0 0.0 0.00 0.00 0.00 96 1011.1
20260905120214 63 0 0.0 0.0 0.00 0.00 0.00 96 1011.3
20260905115003 63 0 0.0 0.0 0.00 0.00 0.00 96 1011.1
20260905114003 62 0 0.0 0.0 0.00 0.00 0.00 96 1010.8
20260905113003 62 0 0.0 0.0 0.00 0.00 0.00 96 1011.0
20260905112003 62 0 0.0 0.0 0.00 0.00 0.00 95 1010.8
20260905111003 62 0 0.0 0.0 0.00 0.00 0.00 95 1010.7
20260905110214 62 0 0.0 0.0 0.00 0.00 0.00 95 1010.5
20260905105214 62 0 0.0 0.0 0.00 0.00 0.00 95 1010.5
20260905104003 62 0 0.0 0.0 0.00 0.00 0.00 95 1010.2
20260905103003 63 0 0.0 0.0 0.00 0.00 0.00 95 1010.1
20260905102003 63 0 0.0 0.0 0.00 0.00 0.00 95 1010.0
20260905101003 63 0 0.0 0.0 0.00 0.00 0.00 95 1010.0
20260905100003 63 0 0.0 0.0 0.00 0.00 0.00 94 1009.9
20260905095003 64 0 0.0 0.0 0.00 0.00 0.00 94 1009.9
20260905094213 64 0 0.0 0.0 0.00 0.00 0.00 94 1009.8
20260905093003 65 0 0.0 0.0 0.00 0.00 0.00 94 1009.8
20260905092003 65 0 0.0 0.0 0.00 0.00 0.00 94 1009.8
20260905091003 66 0 0.0 0.0 0.00 0.00 0.00 94 1009.9
20260905090003 66 0 0.0 0.0 0.00 0.00 0.00 94 1009.8
20260905085003 66 0 0.0 0.0 0.00 0.00 0.00 94 1009.8
20260905084003 66 0 0.0 0.0 0.00 0.00 0.00 93 1009.8
20260905083212 66 0 0.0 0.0 0.00 0.00 0.00 93 1009.8
20260905082213 67 0 0.0 0.0 0.00 0.00 0.00 93 1009.8
20260905081003 67 0 0.0 0.0 0.00 0.00 0.00 93 1010.0
20260905080003 67 0 0.0 0.0 0.00 0.00 0.00 93 1010.0
20260905075003 67 0 0.0 0.0 0.00 0.00 0.00 92 1010.1
20260905074003 67 0 0.0 0.0 0.00 0.00 0.00 91 1010.1
20260905073003 67 0 0.0 0.0 0.00 0.00 0.00 94 1010.0
20260905072003 67 0 0.0 0.0 0.00 0.00 0.00 94 1010.1
20260905071003 67 0 0.0 0.0 0.00 0.00 0.00 94 1010.2
20260905070004 67 0 0.0 0.0 0.00 0.00 0.00 94 1010.2
20260905065003 68 0 0.0 0.0 0.00 0.00 0.00 95 1010.3
20260905064003 68 0 0.0 0.0 0.00 0.00 0.00 95 1010.2
20260905063003 68 0 0.0 0.0 0.00 0.00 0.00 96 1010.5
20260905062003 68 0 0.0 0.0 0.00 0.00 0.00 96 1010.4
20260905061214 68 0 0.0 0.0 0.00 0.00 0.00 95 1010.5
20260905060003 68 0 0.0 0.0 0.00 0.00 0.00 95 1010.4
20260905055003 68 0 0.0 0.0 0.00 0.00 0.00 95 1010.5
20260905054213 69 0 0.0 0.0 0.00 0.00 0.00 96 1010.6
20260905053003 69 0 0.0 0.0 0.00 0.00 0.00 96 1010.8
20260905052003 69 0 0.0 0.0 0.00 0.00 0.00 96 1011.0
20260905051003 69 0 0.0 0.0 0.00 0.00 0.00 95 1011.0
20260905050003 69 0 0.0 0.0 0.00 0.00 0.00 96 1011.0
20260905045213 69 0 0.0 0.0 0.00 0.00 0.00 96 1011.0
20260905044003 69 0 0.0 0.0 0.00 0.00 0.00 95 1011.2
20260905043003 69 0 0.0 0.0 0.00 0.00 0.00 95 1011.1
20260905042213 69 0 0.0 0.0 0.00 0.00 0.00 95 1011.1
20260905041003 69 0 0.0 0.0 0.00 0.00 0.00 95 1011.0
20260905040004 69 0 0.0 0.0 0.00 0.00 0.00 95 1010.8
20260905035003 69 0 0.0 0.0 0.00 0.00 0.00 95 1010.8
20260905034003 69 0 0.0 0.0 0.00 0.00 0.00 95 1010.7
20260905033003 69 0 0.0 0.0 0.00 0.00 0.00 95 1010.5
20260905032003 70 0 0.0 0.0 0.00 0.00 0.00 95 1010.4
20260905031003 70 0 0.0 0.0 0.00 0.00 0.00 95 1010.5
20260905030003 70 0 0.0 0.0 0.00 0.00 0.00 95 1010.5
20260905025003 70 0 0.0 0.0 0.00 0.00 0.00 95 1010.6
20260905024003 70 0 0.0 0.0 0.00 0.00 0.00 95 1010.6
20260905023003 70 0 0.0 0.0 0.00 0.00 0.00 95 1010.7
20260905022003 70 0 0.0 0.0 0.00 0.00 0.00 95 1010.7
20260905021003 70 0 0.0 0.0 0.00 0.00 0.00 95 1010.7
20260905020003 70 0 0.0 0.0 0.00 0.00 0.00 95 1010.7
20260905015212 70 0 0.0 0.0 0.00 0.00 0.00 95 1010.7
20260905014003 70 0 0.0 0.0 0.00 0.00 0.00 95 1010.7
20260905013003 70 0 0.0 0.0 0.00 0.00 0.00 95 1010.7
20260905012003 70 0 0.0 0.0 0.00 0.00 0.00 94 1010.5
20260905011003 71 0 0.0 0.0 0.00 0.00 0.00 94 1010.5
20260905010003 71 0 0.0 0.0 0.00 0.00 0.00 94 1010.4
20260905005003 71 0 0.0 0.0 0.00 0.00 0.00 94 1010.5
20260905004003 72 0 0.0 0.0 0.00 0.00 0.00 94 1010.5